STARLINK-34221

Last updated on Thu Jul 03 2025 00:02:07 GMT+0000 (Coordinated Universal Time)

1 64453U 25130R 25183.58335648 -.00656537 00000+0 -47446-2 0 9994 2 64453 53.1562 179.7527 0000991 76.7799 53.3715 15.74635940 3526
UTC large
Height (km)
Speed (km/s)
/
Latitude / Longitude
Inclination (degrees)
Orbital Period (minutes)
Azimuth
Elevation
Range (km)
Doppler Factor

Next 0 passes for location: London (51.5072 / 0.1276)

Sorry there are no passes over London.